Powrót do katalogu

STARLINK-3735

AktywnyŁącznośćVLEO
NORAD 52116·PAYLOAD·🇺🇸 United States

Wystrzelony Mar 19, 2022 z Cape Canaveral Space Force Station

Loading…

Następne Przeloty (najbliższe 24 godziny)

TLE

ŚwieżeSource: CelesTrak SupGP

Epoka: Sep 14, 2026, 21:09 UTC

1 52116C 22029AE  26257.88173611  .00011501  00000+0  33987-3 0  2574
2 52116  53.1586 295.6382 0001168  91.0160 141.5691 15.34378694    11

Śledź STARLINK-3735 w czasie rzeczywistym z AllMySat

Download on the App Store